Regional Weather Roundup
Issued by NWS Green Bay, WI

Home | Current Version | Previous Version | Text Only | Print | Product List | Glossary On
Versions: 1 2 3 4 5 6 7 8 9 10 11 12 13 14 15 16 17 18 19 20 21 22 23 24 25 26 27 28 29 30 31 32 33 34 35 36 37 38 39 40 41 42 43 44 45 46 47 48 49 50
000
ASUS43 KGRB 270900
RWRGRB

NORTH-CENTRAL AND NORTHEAST WISCONSIN REGIONAL WEATHER ROUNDUP
NATIONAL WEATHER SERVICE GREEN BAY WI
400 AM CDT TUE SEP 27 2016

WIZ005-009-010>012-018-019-271000-
NORTH CENTRAL WISCONSIN

CITY           SKY/WX    TMP DP  RH WIND       PRES   REMARKS
IRONWOOD       LGT RAIN  48  47  96 W17G25    29.60F
MANITOWISH WTR NOT AVBL
ARBOR VITAE    NOT AVBL
EAGLE RIVER    NOT AVBL
LAND O LAKES   NOT AVBL
RHINELANDER    CLOUDY    50  45  83 W18       29.64F
PHILLIPS       NOT AVBL
ANTIGO         NOT AVBL
TOMAHAWK       NOT AVBL
MERRILL        NOT AVBL
$$

WIZ013-073-271000-
NORTHEAST WISCONSIN

CITY           SKY/WX    TMP DP  RH WIND       PRES   REMARKS
IRON MOUNTAIN  CLOUDY    51  44  77 W10       29.56F
MARINETTE      CLOUDY    54  43  66 W7        29.62F
$$

WIZ017-030-035>037-045-271000-
CENTRAL WISCONSIN

CITY           SKY/WX    TMP DP  RH WIND       PRES   REMARKS
MEDFORD        NOT AVBL
WAUSAU         CLOUDY    51  41  68 W13       29.68S
MOSINEE        NOT AVBL
MARSHFIELD     CLOUDY    51  40  65 W13       29.72S
WISC RAPIDS    MOCLDY    50  41  71 W12       29.75S
STEVENS POINT  NOT AVBL
WAUPACA        NOT AVBL
SHAWANO        NOT AVBL
CLINTONVILLE   NOT AVBL
WAUTOMA        PTCLDY    50  40  68 W10       29.75F
$$

WIZ038-039-048-051-271000-
FOX VALLEY

CITY           SKY/WX    TMP DP  RH WIND       PRES   REMARKS
NWS GREEN BAY  CLOUDY    53  43  68 W10       29.68F
APPLETON       NOT AVBL
OSHKOSH        PTCLDY    52  38  58 W8        29.72F
FOND DU LAC    CLEAR     50  39  66 SW7       29.74F
$$

WIZ022-050-052-271000-
EAST CENTRAL WISCONSIN

CITY           SKY/WX    TMP DP  RH WIND       PRES   REMARKS
EPHRAIM        NOT AVBL
WASHINGTON ISL NOT AVBL
STURGEON BAY   CLOUDY    56  43  61 W14G22    29.64F
MANITOWOC      NOT AVBL
SHEBOYGAN      PTCLDY    49  40  71 SW10      29.73F
$$

LMZ563-521-522-541>543-271000-
LAKESHORE

STATION/POSITION TIME  TEMP    WIND        PRES    VSBY  WAVE
                       AIR SEA DIR/SP/G                  HT/PER
                 (UTC) (F)     (DEG/KT/KT) (MB)    (MI)  (FT/S)
SHEBOYGAN LKSHOR 0800   54     240/ 13/ 17 1006.8F
KEWAUNEE LKSHORE 0800   56     240/  9/ 14 1004.9F
NORTHPORT PIER   0800   56     270/  5/ 18 1002.7F
N MID LAKE BUOY  0750   58 66  250/ 25/ 31 1001.4F         6/ 6
CHAMBERS ISLAND  0800   56     230/  9/ 19 1003.0F
MENOMINEE LKSHOR 0800   55     230/  9/ 12 1002.9F
$$




USA.gov is the U.S. government's official web portal to all federal, state and local government web resources and services.